STARLINK-11245 [DTC] (60925 NORAD) Tracking and Keplerian Element Data

This shows tracking and keplerian element data for the satellite.

Feedback or suggestion? Click here.




ElementValue
Catalog60925
NameSTARLINK-11245 [DTC]
Epoch Orbit595
Epoch Day286.91668981
Epoch Year2024
RAAN349.2411
Inclination53.1594
Eccentricity0.0001109
Argument of Perigee91.638
Mean Anonmoly242.2254
Mean Motion15.69685755
Decay Rate8.876E-05
L11 60925U 24155B 24286.91668981 .00008876 00000+0 78121-4 0 9990
L22 60925 53.1594 349.2411 0001109 91.6380 242.2254 15.69685755 5950



Live tracking and technical data element details for STARLINK-11245 [DTC] (NORAD 60925). STARLINK-11245 [DTC] can be tracked NOW for your location showing map with azimuth and elevation plus other details from your city location.







IsCatalogInMostPopularTable: catalog: 60925, numindb: 7
Update: records affected: 1



GetName: 60925 STARLINK-11245 [DTC]

Hit Count: updated at: Tue, 03 Dec 2024 02:32:43 GMT